George, South Africa

4:46 AM SAST on April 23, 2018 (GMT +0200)
George

Weather History for FAGG - March, 2012

Change the Weather History Date:

Tuesday, March 13, 2012

  Actual Average Record
Temperature  
Mean Temperature 70 °F -  
Max Temperature 80 °F 72 °F 84 °F (2018)
Min Temperature 61 °F 55 °F 47 °F (2014)
Cooling Degree Days 6    
Growing Degree Days 20 (Base 50)    
Moisture  
Dew Point 63 °F    
Average Humidity 82    
Maximum Humidity 100    
Minimum Humidity 54    
Precipitation  
Precipitation 0.00 in - - ()
Sea Level Pressure  
Sea Level Pressure 29.95 in    
Wind  
Wind Speed 6 mph ()    
Max Wind Speed 12 mph    
Max Gust Speed -    
Visibility 7.1 miles    
Events      
Averages and records for this station are not official NWS values.
T = Trace of Precipitation, MM = Missing Value Source: Averaged Metar Reports

Daily Weather History Graph

Daily Weather History Graph

Search for Another Location

Airport or City:

Astronomy

Mar. 13, 2012 Rise Set
Actual Time 6:28 AM SAST 6:50 PM SAST
Civil Twilight 6:03 AM SAST 7:15 PM SAST
Nautical Twilight 5:33 AM SAST 7:45 PM SAST
Astronomical Twilight 5:04 AM SAST 8:14 PM SAST
Moon 10:25 PM SAST (3/13) 12:02 PM SAST (3/13)
Length of Visible Light 13h 12m
Length of Day
12h 22m
Waning Gibbous, 68% of the Moon is Illuminated
Mar 13
Waning Gibbous
Mar 15
Last Quarter
Mar 22
New
Mar 30
First Quarter
Apr 6
Full

Hourly Weather History & Observations

Time (SAST) Temp. Dew Point Humidity Pressure Visibility Wind Dir Wind Speed Gust Speed Precip Events Conditions
12:00 AM 64.4 °F 62.6 °F 94% 29.92 in 6.2 mi NW 4.6 mph - N/A   Scattered Clouds
1:00 AM 66.2 °F 64.4 °F 94% 29.92 in 5.6 mi NW 6.9 mph - N/A   Mostly Cloudy
2:00 AM 63 °F 62 °F 96% 29.92 in 6 mi NW 4.6 mph - -  
2:00 AM 62.6 °F 62.6 °F 100% 29.92 in 6.2 mi NW 4.6 mph - N/A   Partly Cloudy
3:00 AM 62.6 °F 60.8 °F 94% 29.92 in 6.2 mi WNW 5.8 mph - N/A   Scattered Clouds
4:00 AM 66.2 °F 62.6 °F 88% 29.92 in 6.2 mi WNW 5.8 mph - N/A   Mostly Cloudy
4:05 AM 64.4 °F 62.6 °F 94% 29.92 in 6.2 mi WNW 5.8 mph - N/A   Mostly Cloudy
5:00 AM 63 °F 61 °F 91% 29.91 in 12 mi NW 5.8 mph - -   Mostly Cloudy
5:00 AM 62.6 °F 60.8 °F 94% 29.92 in 6.2 mi NW 5.8 mph - N/A   Mostly Cloudy
5:27 AM 62.6 °F 60.8 °F 94% 29.89 in 6.2 mi NW 2.3 mph - N/A   Partly Cloudy
6:00 AM 62.6 °F 60.8 °F 94% 29.92 in 6.2 mi NW 3.5 mph - N/A   Scattered Clouds
6:04 AM 62.6 °F 60.8 °F 94% 29.92 in 6.2 mi NW 4.6 mph - N/A   Mostly Cloudy
7:00 AM 64.4 °F 62.6 °F 94% 29.95 in 6.2 mi NW 4.6 mph - N/A   Mostly Cloudy
7:19 AM 66.2 °F 62.6 °F 88% 29.95 in 6.2 mi NW 6.9 mph - N/A   Mostly Cloudy
8:00 AM 67 °F 63 °F 84% 29.96 in 12 mi WNW 5.8 mph - -   Mostly Cloudy
8:00 AM 66.2 °F 62.6 °F 88% 29.95 in 6.2 mi WNW 5.8 mph - N/A   Mostly Cloudy
9:00 AM 69.8 °F 62.6 °F 78% 29.95 in 6.2 mi WSW 9.2 mph - N/A   Mostly Cloudy
9:41 AM 71.6 °F 62.6 °F 73% 29.98 in 6.2 mi WSW 9.2 mph - N/A   Mostly Cloudy
10:00 AM 73.4 °F 62.6 °F 69% 29.98 in 6.2 mi West 9.2 mph - N/A   Mostly Cloudy
11:00 AM 76 °F 62 °F 54% 29.99 in 12 mi West 6.9 mph - -   Scattered Clouds
11:00 AM 75.2 °F 60.8 °F 61% 29.98 in 6.2 mi West 6.9 mph - N/A   Partly Cloudy
11:45 AM 78.8 °F 60.8 °F 54% 29.95 in 6.2 mi NW 5.8 mph - N/A   Partly Cloudy
12:00 PM 78.8 °F 60.8 °F 54% 29.95 in 6.2 mi WNW 5.8 mph - N/A   Partly Cloudy
1:00 PM 78.8 °F 64.4 °F 61% 29.95 in - South 11.5 mph - N/A   Clear
2:00 PM 76 °F 65 °F 60% 29.94 in 12 mi SSE 11.5 mph - -   Scattered Clouds
2:00 PM 75.2 °F 64.4 °F 69% 29.95 in 6.2 mi SSE 10.4 mph - N/A   Partly Cloudy
3:00 PM 75.2 °F 64.4 °F 69% 29.95 in 6.2 mi SSE 8.1 mph - N/A   Partly Cloudy
4:00 PM 77.0 °F 64.4 °F 65% 29.95 in 6.2 mi SSE 8.1 mph - N/A   Partly Cloudy
5:00 PM 75 °F 65 °F 64% 29.93 in 12 mi SE 10.4 mph - -   Scattered Clouds
5:00 PM 75.2 °F 66.2 °F 73% 29.95 in 6.2 mi SE 10.4 mph - N/A   Partly Cloudy
6:00 PM 73.4 °F 66.2 °F 78% 29.95 in 6.2 mi ESE 8.1 mph - N/A   Partly Cloudy
7:00 PM 69.8 °F 66.2 °F 88% 29.95 in 6.2 mi ESE 8.1 mph - N/A   Partly Cloudy
8:00 PM 67 °F 65 °F 92% 29.97 in 12 mi ESE 5.8 mph - -   Scattered Clouds
8:00 PM 66.2 °F 66.2 °F 100% 29.98 in 6.2 mi ESE 5.8 mph - N/A   Partly Cloudy
9:00 PM 68.0 °F 66.2 °F 94% 29.98 in 5.6 mi ESE 9.2 mph - N/A   Mostly Cloudy
10:00 PM 66.2 °F 66.2 °F 100% 29.98 in 5.0 mi NE 3.5 mph - N/A   Partly Cloudy